Time,TemperatureF,DewpointF,PressureIn,WindDirection,WindDirectionDegrees,WindSpeedMPH,WindSpeedGustMPH,Humidity,HourlyPrecipIn,Conditions,Clouds,dailyrainin,SoftwareType,DateUTC
2013-02-04 00:01:00,10.9,5.9,30.46,NNE,22,0.0,0.0,80,0.00,,,0.00,WUHU21623XXSP,2013-02-04 05:01:00,
2013-02-04 00:02:00,10.9,5.9,30.46,NNE,22,0.0,0.0,80,0.00,,,0.00,WUHU21623XXSP,2013-02-04 05:02:00,
2013-02-04 00:07:00,10.8,5.9,30.46,NE,45,0.0,0.0,80,0.00,,,0.00,WUHU21623XXSP,2013-02-04 05:07:00,
2013-02-04 00:12:00,10.8,5.7,30.47,NW,315,0.0,0.0,80,0.00,,,0.00,WUHU21623XXSP,2013-02-04 05:12:00,
2013-02-04 00:17:00,10.6,5.5,30.48,NW,315,0.0,0.0,80,0.00,,,0.00,WUHU21623XXSP,2013-02-04 05:17:00,
2013-02-04 00:22:00,10.6,5.5,30.47,NW,315,0.0,0.0,80,0.00,,,0.00,WUHU21623XXSP,2013-02-04 05:22:00,
2013-02-04 00:27:00,10.6,5.5,30.47,NW,315,0.0,0.0,80,0.00,,,0.00,WUHU21623XXSP,2013-02-04 05:27:00,
2013-02-04 00:32:00,10.2,5.4,30.47,NW,315,0.0,0.0,80,0.00,,,0.00,WUHU21623XXSP,2013-02-04 05:32:00,
2013-02-04 00:37:00,10.2,5.2,30.47,NW,315,0.0,0.0,80,0.00,,,0.00,WUHU21623XXSP,2013-02-04 05:37:00,
2013-02-04 00:42:00,10.2,5.2,30.47,NW,315,0.0,0.0,80,0.00,,,0.00,WUHU21623XXSP,2013-02-04 05:42:00,
2013-02-04 00:47:00,10.2,5.2,30.48,NW,315,0.0,0.0,80,0.00,,,0.00,WUHU21623XXSP,2013-02-04 05:47:00,
2013-02-04 00:52:00,10.2,5.4,30.48,NW,315,0.0,0.0,81,0.00,,,0.00,WUHU21623XXSP,2013-02-04 05:52:00,
2013-02-04 00:57:00,10.0,5.3,30.48,NW,315,0.0,0.0,81,0.00,,,0.00,WUHU21623XXSP,2013-02-04 05:57:00,
2013-02-04 01:02:00,9.7,5.3,30.48,NW,315,0.0,0.0,81,0.00,,,0.00,WUHU21623XXSP,2013-02-04 06:02:00,
2013-02-04 01:07:00,9.7,5.0,30.48,NW,315,0.0,0.0,81,0.00,,,0.00,WUHU21623XXSP,2013-02-04 06:07:00,
2013-02-04 01:12:00,9.7,5.0,30.48,NW,315,0.0,0.0,81,0.00,,,0.00,WUHU21623XXSP,2013-02-04 06:12:00,
2013-02-04 01:17:00,9.7,5.0,30.48,NW,315,0.0,0.0,81,0.00,,,0.00,WUHU21623XXSP,2013-02-04 06:17:00,
2013-02-04 01:22:00,9.7,5.0,30.48,NNW,337,0.0,0.0,81,0.00,,,0.00,WUHU21623XXSP,2013-02-04 06:22:00,
2013-02-04 01:27:00,9.7,5.0,30.48,NNW,337,0.0,0.0,81,0.00,,,0.00,WUHU21623XXSP,2013-02-04 06:27:00,
2013-02-04 01:32:00,10.0,5.3,30.48,North,0,0.0,0.0,81,0.00,,,0.00,WUHU21623XXSP,2013-02-04 06:32:00,
2013-02-04 01:37:00,10.2,5.4,30.48,NNW,337,0.0,0.0,81,0.00,,,0.00,WUHU21623XXSP,2013-02-04 06:37:00,
2013-02-04 01:42:00,10.6,5.8,30.48,ENE,67,0.0,0.0,81,0.00,,,0.00,WUHU21623XXSP,2013-02-04 06:42:00,
2013-02-04 01:47:00,10.8,6.0,30.48,NE,45,0.0,0.0,81,0.00,,,0.00,WUHU21623XXSP,2013-02-04 06:47:00,
2013-02-04 01:52:00,10.9,6.4,30.48,SW,225,0.0,0.0,82,0.00,,,0.00,WUHU21623XXSP,2013-02-04 06:52:00,
2013-02-04 01:57:00,11.1,6.6,30.48,SW,225,0.0,0.0,82,0.00,,,0.00,WUHU21623XXSP,2013-02-04 06:57:00,
2013-02-04 02:02:00,11.1,6.6,30.49,SW,225,0.0,0.0,82,0.00,,,0.00,WUHU21623XXSP,2013-02-04 07:02:00,
2013-02-04 02:07:00,11.3,6.8,30.48,SW,225,0.0,0.0,82,0.00,,,0.00,WUHU21623XXSP,2013-02-04 07:07:00,
2013-02-04 02:12:00,11.5,7.0,30.48,SW,225,0.0,0.0,82,0.00,,,0.00,WUHU21623XXSP,2013-02-04 07:12:00,
2013-02-04 02:17:00,11.7,7.2,30.49,SSW,202,0.0,0.0,82,0.00,,,0.00,WUHU21623XXSP,2013-02-04 07:17:00,
2013-02-04 02:22:00,11.8,7.3,30.49,SSW,202,0.0,0.0,82,0.00,,,0.00,WUHU21623XXSP,2013-02-04 07:22:00,
2013-02-04 02:27:00,12.0,7.5,30.49,ENE,67,0.0,0.0,82,0.00,,,0.00,WUHU21623XXSP,2013-02-04 07:27:00,
2013-02-04 02:32:00,12.0,7.5,30.49,ENE,67,0.0,0.0,82,0.00,,,0.00,WUHU21623XXSP,2013-02-04 07:32:00,
2013-02-04 02:37:00,12.2,7.7,30.49,ENE,67,0.0,0.0,82,0.00,,,0.00,WUHU21623XXSP,2013-02-04 07:37:00,
2013-02-04 02:42:00,12.4,7.9,30.49,ENE,67,0.0,0.0,82,0.00,,,0.00,WUHU21623XXSP,2013-02-04 07:42:00,
2013-02-04 02:47:00,12.6,8.1,30.48,East,90,0.0,0.0,82,0.00,,,0.00,WUHU21623XXSP,2013-02-04 07:47:00,
2013-02-04 02:52:00,12.7,8.2,30.49,East,90,0.0,0.0,82,0.00,,,0.00,WUHU21623XXSP,2013-02-04 07:52:00,
2013-02-04 02:57:00,12.7,8.2,30.49,East,90,0.0,0.0,82,0.00,,,0.00,WUHU21623XXSP,2013-02-04 07:57:00,
2013-02-04 03:02:00,12.7,8.2,30.49,East,90,0.0,0.0,82,0.00,,,0.00,WUHU21623XXSP,2013-02-04 08:02:00,
2013-02-04 03:07:00,12.7,8.2,30.49,East,90,0.0,0.0,82,0.00,,,0.00,WUHU21623XXSP,2013-02-04 08:07:00,
2013-02-04 03:12:00,12.7,8.2,30.49,East,90,0.0,0.0,82,0.00,,,0.00,WUHU21623XXSP,2013-02-04 08:12:00,
2013-02-04 03:17:00,12.7,8.2,30.49,East,90,0.0,0.0,82,0.00,,,0.00,WUHU21623XXSP,2013-02-04 08:17:00,
2013-02-04 03:22:00,12.7,8.2,30.49,East,90,0.0,0.0,82,0.00,,,0.00,WUHU21623XXSP,2013-02-04 08:22:00,
2013-02-04 03:27:00,12.7,8.2,30.49,East,90,0.0,0.0,82,0.00,,,0.00,WUHU21623XXSP,2013-02-04 08:27:00,
2013-02-04 03:32:00,12.7,8.2,30.49,East,90,0.0,0.0,82,0.00,,,0.00,WUHU21623XXSP,2013-02-04 08:32:00,
2013-02-04 03:37:00,12.7,8.2,30.48,East,90,0.0,0.0,82,0.00,,,0.00,WUHU21623XXSP,2013-02-04 08:37:00,
2013-02-04 03:42:00,12.9,8.4,30.49,East,90,0.0,0.0,82,0.00,,,0.00,WUHU21623XXSP,2013-02-04 08:42:00,
2013-02-04 03:47:00,12.9,8.4,30.48,East,90,0.0,0.0,82,0.00,,,0.00,WUHU21623XXSP,2013-02-04 08:47:00,
2013-02-04 03:52:00,12.9,8.4,30.48,East,90,0.0,0.0,82,0.00,,,0.00,WUHU21623XXSP,2013-02-04 08:52:00,
2013-02-04 03:57:00,13.1,8.6,30.48,East,90,0.0,0.0,82,0.00,,,0.00,WUHU21623XXSP,2013-02-04 08:57:00,
2013-02-04 04:02:00,13.1,8.6,30.48,East,90,0.0,0.0,82,0.00,,,0.00,WUHU21623XXSP,2013-02-04 09:02:00,
2013-02-04 04:07:00,13.1,8.6,30.48,East,90,0.0,0.0,82,0.00,,,0.00,WUHU21623XXSP,2013-02-04 09:07:00,
2013-02-04 04:12:00,13.1,8.6,30.48,East,90,0.0,0.0,82,0.00,,,0.00,WUHU21623XXSP,2013-02-04 09:12:00,
2013-02-04 04:17:00,13.1,8.6,30.48,East,90,0.0,0.0,82,0.00,,,0.00,WUHU21623XXSP,2013-02-04 09:17:00,
2013-02-04 04:22:00,13.1,8.6,30.47,East,90,0.0,0.0,82,0.00,,,0.00,WUHU21623XXSP,2013-02-04 09:22:00,
2013-02-04 04:27:00,13.1,8.6,30.47,East,90,0.0,0.0,82,0.00,,,0.00,WUHU21623XXSP,2013-02-04 09:27:00,
2013-02-04 04:32:00,13.3,8.8,30.48,East,90,0.0,0.0,82,0.00,,,0.00,WUHU21623XXSP,2013-02-04 09:32:00,
2013-02-04 04:37:00,13.1,8.6,30.48,East,90,0.0,0.0,82,0.00,,,0.00,WUHU21623XXSP,2013-02-04 09:37:00,
2013-02-04 04:42:00,13.1,8.6,30.48,East,90,0.0,0.0,82,0.00,,,0.00,WUHU21623XXSP,2013-02-04 09:42:00,
2013-02-04 04:47:00,12.9,8.4,30.47,East,90,0.0,0.0,82,0.00,,,0.00,WUHU21623XXSP,2013-02-04 09:47:00,
2013-02-04 04:52:00,12.9,8.4,30.47,East,90,0.0,0.0,82,0.00,,,0.00,WUHU21623XXSP,2013-02-04 09:52:00,
2013-02-04 04:57:00,12.9,8.4,30.48,East,90,0.0,0.0,82,0.00,,,0.00,WUHU21623XXSP,2013-02-04 09:57:00,
2013-02-04 05:02:00,12.7,8.2,30.47,East,90,0.0,0.0,82,0.00,,,0.00,WUHU21623XXSP,2013-02-04 10:02:00,
2013-02-04 05:07:00,12.7,8.2,30.47,East,90,0.0,0.0,82,0.00,,,0.00,WUHU21623XXSP,2013-02-04 10:07:00,
2013-02-04 05:12:00,12.7,8.2,30.47,East,90,0.0,0.0,82,0.00,,,0.00,WUHU21623XXSP,2013-02-04 10:12:00,
2013-02-04 05:17:00,12.7,8.2,30.48,East,90,0.0,0.0,82,0.00,,,0.00,WUHU21623XXSP,2013-02-04 10:17:00,
2013-02-04 05:22:00,12.7,8.2,30.47,East,90,0.0,0.0,82,0.00,,,0.00,WUHU21623XXSP,2013-02-04 10:22:00,
2013-02-04 05:27:00,12.7,8.2,30.47,East,90,0.0,0.0,82,0.00,,,0.00,WUHU21623XXSP,2013-02-04 10:27:00,
2013-02-04 05:32:00,12.9,8.4,30.47,East,90,0.0,0.0,82,0.00,,,0.00,WUHU21623XXSP,2013-02-04 10:32:00,
2013-02-04 05:37:00,12.9,8.4,30.48,East,90,0.0,0.0,82,0.00,,,0.00,WUHU21623XXSP,2013-02-04 10:37:00,
2013-02-04 05:42:00,12.9,8.4,30.47,East,90,0.0,0.0,82,0.00,,,0.00,WUHU21623XXSP,2013-02-04 10:42:00,
2013-02-04 05:47:00,12.9,8.4,30.47,East,90,0.0,0.0,82,0.00,,,0.00,WUHU21623XXSP,2013-02-04 10:47:00,
2013-02-04 05:52:00,12.9,8.4,30.47,East,90,0.0,0.0,82,0.00,,,0.00,WUHU21623XXSP,2013-02-04 10:52:00,
2013-02-04 05:57:00,12.9,8.4,30.46,East,90,0.0,0.0,82,0.00,,,0.00,WUHU21623XXSP,2013-02-04 10:57:00,
2013-02-04 06:02:00,12.9,8.4,30.46,East,90,0.0,0.0,82,0.00,,,0.00,WUHU21623XXSP,2013-02-04 11:02:00,
2013-02-04 06:07:00,12.9,8.7,30.46,East,90,0.0,0.0,83,0.00,,,0.00,WUHU21623XXSP,2013-02-04 11:07:00,
2013-02-04 06:12:00,12.7,8.5,30.46,East,90,0.0,0.0,83,0.00,,,0.00,WUHU21623XXSP,2013-02-04 11:12:00,
2013-02-04 06:17:00,12.9,8.7,30.46,East,90,0.0,0.0,83,0.00,,,0.00,WUHU21623XXSP,2013-02-04 11:17:00,
2013-02-04 06:22:00,12.9,8.7,30.46,East,90,0.0,0.0,83,0.00,,,0.00,WUHU21623XXSP,2013-02-04 11:22:00,
2013-02-04 06:27:00,12.9,8.7,30.46,East,90,0.0,0.0,83,0.00,,,0.00,WUHU21623XXSP,2013-02-04 11:27:00,
2013-02-04 06:32:00,12.9,8.7,30.46,East,90,0.0,0.0,83,0.00,,,0.00,WUHU21623XXSP,2013-02-04 11:32:00,
2013-02-04 06:37:00,12.9,8.7,30.46,East,90,0.0,0.0,83,0.00,,,0.00,WUHU21623XXSP,2013-02-04 11:37:00,
2013-02-04 06:42:00,12.9,8.7,30.46,East,90,0.0,0.0,83,0.00,,,0.00,WUHU21623XXSP,2013-02-04 11:42:00,
2013-02-04 06:47:00,13.1,8.9,30.46,East,90,0.0,0.0,83,0.00,,,0.00,WUHU21623XXSP,2013-02-04 11:47:00,
2013-02-04 06:52:00,13.1,8.9,30.46,East,90,0.0,0.0,83,0.00,,,0.00,WUHU21623XXSP,2013-02-04 11:52:00,
2013-02-04 06:57:00,13.3,9.1,30.46,East,90,0.0,0.0,83,0.00,,,0.00,WUHU21623XXSP,2013-02-04 11:57:00,
2013-02-04 07:02:00,13.3,9.1,30.46,East,90,0.0,0.0,83,0.00,,,0.00,WUHU21623XXSP,2013-02-04 12:02:00,
2013-02-04 07:07:00,13.3,9.1,30.46,East,90,0.0,0.0,83,0.00,,,0.00,WUHU21623XXSP,2013-02-04 12:07:00,
2013-02-04 07:12:00,13.6,9.4,30.46,East,90,0.0,0.0,83,0.00,,,0.00,WUHU21623XXSP,2013-02-04 12:12:00,
2013-02-04 07:17:00,13.6,9.4,30.46,East,90,0.0,0.0,83,0.00,,,0.00,WUHU21623XXSP,2013-02-04 12:17:00,
2013-02-04 07:22:00,13.6,9.4,30.46,East,90,0.0,0.0,83,0.00,,,0.00,WUHU21623XXSP,2013-02-04 12:22:00,
2013-02-04 07:27:00,13.8,9.6,30.46,East,90,0.0,0.0,83,0.00,,,0.00,WUHU21623XXSP,2013-02-04 12:27:00,
2013-02-04 07:33:00,13.8,9.6,30.47,East,90,0.0,0.0,83,0.00,,,0.00,WUHU21623XXSP,2013-02-04 12:33:00,
2013-02-04 07:38:00,13.8,9.6,30.46,East,90,0.0,0.0,83,0.00,,,0.00,WUHU21623XXSP,2013-02-04 12:38:00,
2013-02-04 07:43:00,13.8,9.6,30.46,East,90,0.0,0.0,83,0.00,,,0.00,WUHU21623XXSP,2013-02-04 12:43:00,
2013-02-04 07:48:00,14.0,9.8,30.47,East,90,0.0,0.0,83,0.00,,,0.00,WUHU21623XXSP,2013-02-04 12:48:00,
2013-02-04 07:53:00,14.2,9.9,30.47,East,90,0.0,0.0,83,0.00,,,0.00,WUHU21623XXSP,2013-02-04 12:53:00,
2013-02-04 07:58:00,14.2,9.9,30.47,East,90,0.0,0.0,83,0.00,,,0.00,WUHU21623XXSP,2013-02-04 12:58:00,
2013-02-04 08:03:00,14.2,9.9,30.47,East,90,0.0,0.0,83,0.00,,,0.00,WUHU21623XXSP,2013-02-04 13:03:00,
2013-02-04 08:08:00,14.2,9.9,30.47,East,90,0.0,0.0,83,0.00,,,0.00,WUHU21623XXSP,2013-02-04 13:08:00,
2013-02-04 08:13:00,14.4,10.1,30.48,East,90,0.0,0.0,83,0.00,,,0.00,WUHU21623XXSP,2013-02-04 13:13:00,
2013-02-04 08:18:00,14.4,10.1,30.47,East,90,0.0,0.0,83,0.00,,,0.00,WUHU21623XXSP,2013-02-04 13:18:00,
2013-02-04 08:23:00,14.5,10.3,30.47,East,90,0.0,0.0,83,0.00,,,0.00,WUHU21623XXSP,2013-02-04 13:23:00,
2013-02-04 08:28:00,14.7,10.5,30.47,East,90,0.0,0.0,83,0.00,,,0.00,WUHU21623XXSP,2013-02-04 13:28:00,
2013-02-04 08:33:00,14.7,10.5,30.48,East,90,0.0,0.0,83,0.00,,,0.00,WUHU21623XXSP,2013-02-04 13:33:00,
2013-02-04 08:38:00,14.7,10.5,30.48,East,90,0.0,0.0,83,0.00,,,0.00,WUHU21623XXSP,2013-02-04 13:38:00,
2013-02-04 08:43:00,15.1,10.8,30.48,East,90,0.0,0.0,83,0.00,,,0.00,WUHU21623XXSP,2013-02-04 13:43:00,
2013-02-04 08:48:00,15.1,10.8,30.48,East,90,0.0,0.0,83,0.00,,,0.00,WUHU21623XXSP,2013-02-04 13:48:00,
2013-02-04 08:53:00,15.1,10.8,30.48,East,90,0.0,0.0,83,0.00,,,0.00,WUHU21623XXSP,2013-02-04 13:53:00,
2013-02-04 08:58:00,15.1,10.8,30.48,East,90,0.0,0.0,83,0.00,,,0.00,WUHU21623XXSP,2013-02-04 13:58:00,
2013-02-04 09:03:00,15.4,11.2,30.49,East,90,0.0,0.0,83,0.00,,,0.00,WUHU21623XXSP,2013-02-04 14:03:00,
2013-02-04 09:08:00,15.3,11.0,30.49,East,90,0.0,0.0,83,0.00,,,0.00,WUHU21623XXSP,2013-02-04 14:08:00,
2013-02-04 09:13:00,15.3,10.7,30.48,South,180,0.0,0.0,82,0.00,,,0.00,WUHU21623XXSP,2013-02-04 14:13:00,
2013-02-04 09:18:00,15.3,10.7,30.49,South,180,0.0,0.0,82,0.00,,,0.00,WUHU21623XXSP,2013-02-04 14:18:00,
2013-02-04 09:23:00,15.4,10.7,30.48,South,180,0.0,0.0,82,0.00,,,0.00,WUHU21623XXSP,2013-02-04 14:23:00,
2013-02-04 09:28:00,15.4,10.9,30.49,South,180,0.0,0.0,82,0.00,,,0.00,WUHU21623XXSP,2013-02-04 14:28:00,
2013-02-04 09:33:00,15.4,10.9,30.49,South,180,0.0,0.0,82,0.00,,,0.00,WUHU21623XXSP,2013-02-04 14:33:00,
2013-02-04 09:38:00,15.6,11.1,30.48,South,180,0.0,0.0,82,0.00,,,0.00,WUHU21623XXSP,2013-02-04 14:38:00,
2013-02-04 09:43:00,15.6,11.1,30.48,South,180,0.0,0.0,82,0.00,,,0.00,WUHU21623XXSP,2013-02-04 14:43:00,
2013-02-04 09:48:00,15.6,11.1,30.48,South,180,0.0,0.0,82,0.00,,,0.00,WUHU21623XXSP,2013-02-04 14:48:00,
2013-02-04 09:53:00,16.0,11.4,30.48,South,180,0.0,0.0,82,0.00,,,0.00,WUHU21623XXSP,2013-02-04 14:53:00,
2013-02-04 09:58:00,16.2,11.6,30.49,South,180,0.0,0.0,82,0.00,,,0.00,WUHU21623XXSP,2013-02-04 14:58:00,
2013-02-04 10:03:00,16.2,11.6,30.48,South,180,0.0,0.0,82,0.00,,,0.00,WUHU21623XXSP,2013-02-04 15:03:00,
2013-02-04 10:08:00,16.3,11.8,30.49,South,180,0.0,0.0,82,0.00,,,0.00,WUHU21623XXSP,2013-02-04 15:08:00,
2013-02-04 10:13:00,16.3,11.8,30.49,South,180,0.0,0.0,82,0.00,,,0.00,WUHU21623XXSP,2013-02-04 15:13:00,
2013-02-04 10:18:00,16.5,11.7,30.48,South,180,0.0,0.0,81,0.00,,,0.00,WUHU21623XXSP,2013-02-04 15:18:00,
2013-02-04 10:23:00,16.7,11.8,30.49,South,180,0.0,0.0,81,0.00,,,0.00,WUHU21623XXSP,2013-02-04 15:23:00,
2013-02-04 10:28:00,16.9,12.0,30.48,SSE,157,0.0,0.0,81,0.00,,,0.00,WUHU21623XXSP,2013-02-04 15:28:00,
2013-02-04 10:33:00,17.2,12.1,30.48,SSE,157,0.0,0.0,81,0.00,,,0.00,WUHU21623XXSP,2013-02-04 15:33:00,
2013-02-04 10:38:00,17.2,12.1,30.48,SSW,202,0.0,0.0,80,0.00,,,0.00,WUHU21623XXSP,2013-02-04 15:38:00,
2013-02-04 10:43:00,17.4,12.2,30.48,SSW,202,0.0,0.0,80,0.00,,,0.00,WUHU21623XXSP,2013-02-04 15:43:00,
2013-02-04 10:48:00,17.6,12.4,30.47,SSW,202,0.0,0.0,80,0.00,,,0.00,WUHU21623XXSP,2013-02-04 15:48:00,
2013-02-04 10:53:00,18.1,12.9,30.48,SSW,202,0.0,0.0,80,0.00,,,0.00,WUHU21623XXSP,2013-02-04 15:53:00,
2013-02-04 10:58:00,18.3,13.1,30.47,SSW,202,0.0,0.0,80,0.00,,,0.00,WUHU21623XXSP,2013-02-04 15:58:00,
2013-02-04 11:03:00,18.7,13.2,30.47,SSW,202,0.0,0.0,79,0.00,,,0.00,WUHU21623XXSP,2013-02-04 16:03:00,
2013-02-04 11:08:00,19.0,13.5,30.46,SSW,202,0.0,0.0,79,0.00,,,0.00,WUHU21623XXSP,2013-02-04 16:08:00,
2013-02-04 11:13:00,19.2,13.5,30.47,SSW,202,0.0,0.0,79,0.00,,,0.00,WUHU21623XXSP,2013-02-04 16:13:00,
2013-02-04 11:18:00,19.2,13.7,30.47,SSW,202,0.0,0.0,79,0.00,,,0.00,WUHU21623XXSP,2013-02-04 16:18:00,
2013-02-04 11:23:00,19.8,13.9,30.46,SSW,202,0.0,0.0,78,0.00,,,0.00,WUHU21623XXSP,2013-02-04 16:23:00,
2013-02-04 11:28:00,19.9,14.1,30.46,SSW,202,0.0,0.0,78,0.00,,,0.00,WUHU21623XXSP,2013-02-04 16:28:00,
2013-02-04 11:33:00,19.9,14.1,30.46,SSW,202,0.0,0.0,78,0.00,,,0.00,WUHU21623XXSP,2013-02-04 16:33:00,
2013-02-04 11:38:00,19.9,13.8,30.46,SSW,202,0.0,0.0,77,0.00,,,0.00,WUHU21623XXSP,2013-02-04 16:38:00,
2013-02-04 11:43:00,19.6,13.4,30.46,SW,225,0.0,0.0,77,0.00,,,0.00,WUHU21623XXSP,2013-02-04 16:43:00,
2013-02-04 11:48:00,19.6,13.4,30.46,SW,225,0.0,0.0,77,0.00,,,0.00,WUHU21623XXSP,2013-02-04 16:48:00,
2013-02-04 11:53:00,19.6,13.4,30.46,ESE,112,0.0,0.0,77,0.00,,,0.00,WUHU21623XXSP,2013-02-04 16:53:00,
2013-02-04 11:58:00,19.9,13.5,30.46,ESE,112,0.0,0.0,76,0.00,,,0.00,WUHU21623XXSP,2013-02-04 16:58:00,
2013-02-04 12:03:00,20.3,13.9,30.46,ESE,112,0.0,0.0,76,0.00,,,0.00,WUHU21623XXSP,2013-02-04 17:03:00,
2013-02-04 12:08:00,20.5,14.0,30.46,East,90,0.0,0.0,76,0.00,,,0.00,WUHU21623XXSP,2013-02-04 17:08:00,
2013-02-04 12:13:00,20.8,14.4,30.46,East,90,0.0,0.0,76,0.00,,,0.00,WUHU21623XXSP,2013-02-04 17:13:00,
2013-02-04 12:18:00,21.0,14.6,30.46,ESE,112,0.0,0.0,76,0.00,,,0.00,WUHU21623XXSP,2013-02-04 17:18:00,
2013-02-04 12:23:00,21.0,14.3,30.45,ESE,112,0.0,0.0,75,0.00,,,0.00,WUHU21623XXSP,2013-02-04 17:23:00,
2013-02-04 12:28:00,21.0,14.3,30.45,East,90,0.0,0.0,75,0.00,,,0.00,WUHU21623XXSP,2013-02-04 17:28:00,
2013-02-04 12:33:00,21.0,14.3,30.44,ESE,112,0.0,0.0,75,0.00,,,0.00,WUHU21623XXSP,2013-02-04 17:33:00,
2013-02-04 12:38:00,20.8,13.8,30.44,WSW,247,0.0,0.0,74,0.00,,,0.00,WUHU21623XXSP,2013-02-04 17:38:00,
2013-02-04 12:43:00,20.8,13.8,30.44,WSW,247,0.0,0.0,74,0.00,,,0.00,WUHU21623XXSP,2013-02-04 17:43:00,
2013-02-04 12:48:00,20.5,13.4,30.44,WSW,247,0.0,0.0,74,0.00,,,0.00,WUHU21623XXSP,2013-02-04 17:48:00,
2013-02-04 12:53:00,20.3,13.2,30.44,NNE,22,0.0,0.0,74,0.00,,,0.00,WUHU21623XXSP,2013-02-04 17:53:00,
2013-02-04 12:58:00,20.8,14.1,30.44,NNE,22,0.0,0.0,75,0.00,,,0.00,WUHU21623XXSP,2013-02-04 17:58:00,
2013-02-04 13:03:00,21.0,14.3,30.43,East,90,0.0,0.0,75,0.00,,,0.00,WUHU21623XXSP,2013-02-04 18:03:00,
2013-02-04 13:08:00,21.2,14.1,30.43,NNE,22,0.0,0.0,74,0.00,,,0.00,WUHU21623XXSP,2013-02-04 18:08:00,
2013-02-04 13:13:00,21.4,14.3,30.43,NNE,22,0.0,0.0,74,0.00,,,0.00,WUHU21623XXSP,2013-02-04 18:13:00,
2013-02-04 13:18:00,21.7,14.7,30.43,WNW,292,0.0,0.0,74,0.00,,,0.00,WUHU21623XXSP,2013-02-04 18:18:00,
2013-02-04 13:23:00,21.9,14.9,30.43,West,270,0.0,0.0,74,0.00,,,0.00,WUHU21623XXSP,2013-02-04 18:23:00,
2013-02-04 13:28:00,21.9,14.9,30.43,WSW,247,0.0,0.0,74,0.00,,,0.00,WUHU21623XXSP,2013-02-04 18:28:00,
2013-02-04 13:33:00,22.5,15.4,30.42,East,90,0.0,0.0,74,0.00,,,0.00,WUHU21623XXSP,2013-02-04 18:33:00,
2013-02-04 13:38:00,22.6,15.3,30.43,ENE,67,1.8,1.8,73,0.00,,,0.00,WUHU21623XXSP,2013-02-04 18:38:00,
2013-02-04 13:43:00,22.5,14.8,30.43,SSE,157,0.0,1.8,72,0.00,,,0.00,WUHU21623XXSP,2013-02-04 18:43:00,
2013-02-04 13:48:00,22.6,14.7,30.42,SE,135,0.0,1.8,71,0.00,,,0.00,WUHU21623XXSP,2013-02-04 18:48:00,
2013-02-04 13:53:00,22.5,14.5,30.41,NE,45,0.0,1.6,71,0.00,,,0.00,WUHU21623XXSP,2013-02-04 18:53:00,
2013-02-04 13:58:00,22.6,14.7,30.42,ESE,112,0.0,0.0,71,0.00,,,0.00,WUHU21623XXSP,2013-02-04 18:58:00,
2013-02-04 14:03:00,22.6,14.7,30.41,South,180,0.0,0.0,71,0.00,,,0.00,WUHU21623XXSP,2013-02-04 19:03:00,
2013-02-04 14:08:00,22.8,14.8,30.41,South,180,0.0,0.0,71,0.00,,,0.00,WUHU21623XXSP,2013-02-04 19:08:00,
2013-02-04 14:13:00,22.6,14.7,30.41,ENE,67,0.0,0.0,71,0.00,,,0.00,WUHU21623XXSP,2013-02-04 19:13:00,
2013-02-04 14:18:00,22.8,14.8,30.41,East,90,0.0,0.0,71,0.00,,,0.00,WUHU21623XXSP,2013-02-04 19:18:00,
2013-02-04 14:23:00,23.7,15.4,30.41,East,90,2.2,2.2,70,0.00,,,0.00,WUHU21623XXSP,2013-02-04 19:23:00,
2013-02-04 14:28:00,24.1,15.3,30.41,NE,45,0.0,2.2,69,0.00,,,0.00,WUHU21623XXSP,2013-02-04 19:28:00,
2013-02-04 14:33:00,24.1,15.0,30.40,South,180,0.0,0.0,68,0.00,,,0.00,WUHU21623XXSP,2013-02-04 19:33:00,
2013-02-04 14:38:00,23.7,14.3,30.41,West,270,0.0,0.0,67,0.00,,,0.00,WUHU21623XXSP,2013-02-04 19:38:00,
2013-02-04 14:43:00,23.5,14.1,30.41,West,270,0.0,0.0,67,0.00,,,0.00,WUHU21623XXSP,2013-02-04 19:43:00,
2013-02-04 14:48:00,23.5,14.1,30.40,East,90,0.0,0.0,67,0.00,,,0.00,WUHU21623XXSP,2013-02-04 19:48:00,
2013-02-04 14:53:00,23.5,14.5,30.40,North,0,0.0,0.0,68,0.00,,,0.00,WUHU21623XXSP,2013-02-04 19:53:00,
2013-02-04 14:58:00,23.9,14.8,30.40,North,0,0.0,0.0,68,0.00,,,0.00,WUHU21623XXSP,2013-02-04 19:58:00,
2013-02-04 15:03:00,24.1,14.6,30.40,SE,135,0.0,0.0,67,0.00,,,0.00,WUHU21623XXSP,2013-02-04 20:03:00,
2013-02-04 15:08:00,23.7,14.3,30.40,ESE,112,0.0,0.0,67,0.00,,,0.00,WUHU21623XXSP,2013-02-04 20:08:00,
2013-02-04 15:14:00,23.4,14.0,30.40,WSW,247,0.0,0.0,67,0.00,,,0.00,WUHU21623XXSP,2013-02-04 20:14:00,
2013-02-04 15:19:00,22.8,13.8,30.40,NNE,22,0.0,0.0,68,0.00,,,0.00,WUHU21623XXSP,2013-02-04 20:19:00,
2013-02-04 15:24:00,22.6,13.5,30.40,NNE,22,0.0,0.0,68,0.00,,,0.00,WUHU21623XXSP,2013-02-04 20:24:00,
2013-02-04 15:29:00,22.3,13.3,30.40,ENE,67,0.0,0.0,68,0.00,,,0.00,WUHU21623XXSP,2013-02-04 20:29:00,
2013-02-04 15:34:00,21.9,12.9,30.40,ESE,112,0.0,0.0,68,0.00,,,0.00,WUHU21623XXSP,2013-02-04 20:34:00,
2013-02-04 15:39:00,21.6,12.6,30.40,SE,135,0.0,0.0,68,0.00,,,0.00,WUHU21623XXSP,2013-02-04 20:39:00,
2013-02-04 15:44:00,21.7,12.8,30.40,NNE,22,0.0,0.0,68,0.00,,,0.00,WUHU21623XXSP,2013-02-04 20:44:00,
2013-02-04 15:49:00,22.8,14.2,30.40,ESE,112,0.0,0.0,69,0.00,,,0.00,WUHU21623XXSP,2013-02-04 20:49:00,
2013-02-04 15:54:00,23.2,14.5,30.40,ESE,112,0.0,0.0,69,0.00,,,0.00,WUHU21623XXSP,2013-02-04 20:54:00,
2013-02-04 15:59:00,22.8,13.8,30.40,SE,135,0.0,0.0,68,0.00,,,0.00,WUHU21623XXSP,2013-02-04 20:59:00,
2013-02-04 16:04:00,22.3,12.9,30.40,SE,135,0.0,0.0,67,0.00,,,0.00,WUHU21623XXSP,2013-02-04 21:04:00,
2013-02-04 16:09:00,21.9,12.6,30.39,ENE,67,0.0,0.0,67,0.00,,,0.00,WUHU21623XXSP,2013-02-04 21:09:00,
2013-02-04 16:14:00,21.7,12.4,30.39,ENE,67,0.0,0.0,67,0.00,,,0.00,WUHU21623XXSP,2013-02-04 21:14:00,
2013-02-04 16:19:00,21.0,11.7,30.40,ESE,112,0.0,0.0,67,0.00,,,0.00,WUHU21623XXSP,2013-02-04 21:19:00,
2013-02-04 16:24:00,21.0,12.1,30.39,ESE,112,0.0,0.0,68,0.00,,,0.00,WUHU21623XXSP,2013-02-04 21:24:00,
2013-02-04 16:29:00,21.0,12.1,30.39,NNE,22,0.0,0.0,68,0.00,,,0.00,WUHU21623XXSP,2013-02-04 21:29:00,
2013-02-04 16:34:00,21.4,12.4,30.39,NNE,22,0.0,0.0,68,0.00,,,0.00,WUHU21623XXSP,2013-02-04 21:34:00,
2013-02-04 16:39:00,21.6,12.2,30.39,NW,315,0.0,0.0,67,0.00,,,0.00,WUHU21623XXSP,2013-02-04 21:39:00,
2013-02-04 16:44:00,21.7,12.4,30.39,NW,315,0.0,0.0,67,0.00,,,0.00,WUHU21623XXSP,2013-02-04 21:44:00,
2013-02-04 16:49:00,21.6,11.9,30.39,East,90,0.0,0.0,66,0.00,,,0.00,WUHU21623XXSP,2013-02-04 21:49:00,
2013-02-04 16:54:00,21.4,11.7,30.39,SW,225,0.0,0.0,66,0.00,,,0.00,WUHU21623XXSP,2013-02-04 21:54:00,
2013-02-04 16:59:00,21.0,11.4,30.39,SW,225,0.0,0.0,66,0.00,,,0.00,WUHU21623XXSP,2013-02-04 21:59:00,
2013-02-04 17:04:00,20.8,10.8,30.38,South,180,0.0,0.0,65,0.00,,,0.00,WUHU21623XXSP,2013-02-04 22:04:00,
2013-02-04 17:09:00,20.8,10.8,30.38,ENE,67,0.0,0.0,65,0.00,,,0.00,WUHU21623XXSP,2013-02-04 22:09:00,
2013-02-04 17:14:00,20.5,10.5,30.38,East,90,0.0,0.0,65,0.00,,,0.00,WUHU21623XXSP,2013-02-04 22:14:00,
2013-02-04 17:19:00,20.1,10.5,30.38,East,90,0.0,0.0,66,0.00,,,0.00,WUHU21623XXSP,2013-02-04 22:19:00,
2013-02-04 17:24:00,20.1,10.5,30.38,East,90,0.0,0.0,66,0.00,,,0.00,WUHU21623XXSP,2013-02-04 22:24:00,
2013-02-04 17:29:00,19.8,10.1,30.38,East,90,0.0,0.0,66,0.00,,,0.00,WUHU21623XXSP,2013-02-04 22:29:00,
2013-02-04 17:34:00,19.6,9.9,30.38,East,90,0.0,0.0,66,0.00,,,0.00,WUHU21623XXSP,2013-02-04 22:34:00,
2013-02-04 17:39:00,19.2,9.9,30.38,East,90,0.0,0.0,67,0.00,,,0.00,WUHU21623XXSP,2013-02-04 22:39:00,
2013-02-04 17:44:00,18.9,9.3,30.38,East,90,0.0,0.0,66,0.00,,,0.00,WUHU21623XXSP,2013-02-04 22:44:00,
2013-02-04 17:49:00,18.5,9.3,30.38,East,90,0.0,0.0,67,0.00,,,0.00,WUHU21623XXSP,2013-02-04 22:49:00,
2013-02-04 17:54:00,18.3,9.1,30.38,East,90,0.0,0.0,67,0.00,,,0.00,WUHU21623XXSP,2013-02-04 22:54:00,
2013-02-04 17:59:00,17.8,8.6,30.38,East,90,0.0,0.0,67,0.00,,,0.00,WUHU21623XXSP,2013-02-04 22:59:00,
2013-02-04 18:04:00,17.4,8.6,30.38,East,90,0.0,0.0,68,0.00,,,0.00,WUHU21623XXSP,2013-02-04 23:04:00,
2013-02-04 18:09:00,16.9,8.1,30.38,East,90,0.0,0.0,68,0.00,,,0.00,WUHU21623XXSP,2013-02-04 23:09:00,
2013-02-04 18:14:00,16.3,7.6,30.39,East,90,0.0,0.0,68,0.00,,,0.00,WUHU21623XXSP,2013-02-04 23:14:00,
2013-02-04 18:19:00,16.2,7.4,30.38,East,90,0.0,0.0,68,0.00,,,0.00,WUHU21623XXSP,2013-02-04 23:19:00,
2013-02-04 18:24:00,15.8,7.0,30.38,East,90,0.0,0.0,68,0.00,,,0.00,WUHU21623XXSP,2013-02-04 23:24:00,
2013-02-04 18:29:00,15.4,7.0,30.38,East,90,0.0,0.0,69,0.00,,,0.00,WUHU21623XXSP,2013-02-04 23:29:00,
2013-02-04 18:34:00,15.1,6.7,30.39,East,90,0.0,0.0,69,0.00,,,0.00,WUHU21623XXSP,2013-02-04 23:34:00,
2013-02-04 18:39:00,14.7,6.5,30.39,East,90,0.0,0.0,69,0.00,,,0.00,WUHU21623XXSP,2013-02-04 23:39:00,
2013-02-04 18:44:00,14.4,6.4,30.39,East,90,0.0,0.0,70,0.00,,,0.00,WUHU21623XXSP,2013-02-04 23:44:00,
2013-02-04 18:49:00,14.2,6.2,30.40,East,90,0.0,0.0,70,0.00,,,0.00,WUHU21623XXSP,2013-02-04 23:49:00,
2013-02-04 18:54:00,14.0,6.1,30.40,East,90,0.0,0.0,70,0.00,,,0.00,WUHU21623XXSP,2013-02-04 23:54:00,
2013-02-04 18:59:00,13.6,5.7,30.40,East,90,0.0,0.0,70,0.00,,,0.00,WUHU21623XXSP,2013-02-04 23:59:00,
2013-02-04 19:04:00,13.6,6.0,30.40,East,90,0.0,0.0,71,0.00,,,0.00,WUHU21623XXSP,2013-02-05 00:04:00,
2013-02-04 19:09:00,13.3,5.8,30.40,East,90,0.0,0.0,71,0.00,,,0.00,WUHU21623XXSP,2013-02-05 00:09:00,
2013-02-04 19:14:00,13.1,5.6,30.40,East,90,0.0,0.0,71,0.00,,,0.00,WUHU21623XXSP,2013-02-05 00:14:00,
2013-02-04 19:19:00,12.7,5.4,30.40,East,90,0.0,0.0,72,0.00,,,0.00,WUHU21623XXSP,2013-02-05 00:19:00,
2013-02-04 19:24:00,12.7,5.4,30.40,East,90,0.0,0.0,72,0.00,,,0.00,WUHU21623XXSP,2013-02-05 00:24:00,
2013-02-04 19:29:00,12.6,5.2,30.40,East,90,0.0,0.0,72,0.00,,,0.00,WUHU21623XXSP,2013-02-05 00:29:00,
2013-02-04 19:34:00,12.4,5.0,30.40,East,90,0.0,0.0,72,0.00,,,0.00,WUHU21623XXSP,2013-02-05 00:34:00,
2013-02-04 19:39:00,12.4,5.0,30.41,East,90,0.0,0.0,73,0.00,,,0.00,WUHU21623XXSP,2013-02-05 00:39:00,
2013-02-04 19:44:00,12.2,5.1,30.41,East,90,0.0,0.0,73,0.00,,,0.00,WUHU21623XXSP,2013-02-05 00:44:00,
2013-02-04 19:49:00,12.0,5.0,30.41,East,90,0.0,0.0,73,0.00,,,0.00,WUHU21623XXSP,2013-02-05 00:49:00,
2013-02-04 19:54:00,12.0,5.0,30.42,East,90,0.0,0.0,73,0.00,,,0.00,WUHU21623XXSP,2013-02-05 00:54:00,
2013-02-04 19:59:00,11.8,4.8,30.42,East,90,0.0,0.0,73,0.00,,,0.00,WUHU21623XXSP,2013-02-05 00:59:00,
2013-02-04 20:04:00,11.7,4.9,30.43,East,90,0.0,0.0,74,0.00,,,0.00,WUHU21623XXSP,2013-02-05 01:04:00,
2013-02-04 20:09:00,11.7,4.9,30.43,East,90,0.0,0.0,74,0.00,,,0.00,WUHU21623XXSP,2013-02-05 01:09:00,
2013-02-04 20:14:00,11.5,4.7,30.43,East,90,0.0,0.0,74,0.00,,,0.00,WUHU21623XXSP,2013-02-05 01:14:00,
2013-02-04 20:20:00,11.3,4.8,30.43,East,90,0.0,0.0,75,0.00,,,0.00,WUHU21623XXSP,2013-02-05 01:20:00,
2013-02-04 20:25:00,11.3,4.8,30.43,East,90,0.0,0.0,75,0.00,,,0.00,WUHU21623XXSP,2013-02-05 01:25:00,
2013-02-04 20:30:00,11.1,4.6,30.43,East,90,0.0,0.0,75,0.00,,,0.00,WUHU21623XXSP,2013-02-05 01:30:00,
2013-02-04 20:35:00,11.1,4.6,30.43,East,90,0.0,0.0,75,0.00,,,0.00,WUHU21623XXSP,2013-02-05 01:35:00,
2013-02-04 20:40:00,10.8,4.6,30.42,East,90,0.0,0.0,76,0.00,,,0.00,WUHU21623XXSP,2013-02-05 01:40:00,
2013-02-04 20:45:00,10.6,4.4,30.42,East,90,0.0,0.0,76,0.00,,,0.00,WUHU21623XXSP,2013-02-05 01:45:00,
2013-02-04 20:50:00,10.2,4.0,30.42,East,90,0.0,0.0,76,0.00,,,0.00,WUHU21623XXSP,2013-02-05 01:50:00,
2013-02-04 20:55:00,10.0,4.2,30.42,East,90,0.0,0.0,77,0.00,,,0.00,WUHU21623XXSP,2013-02-05 01:55:00,
2013-02-04 21:00:00,10.0,4.2,30.42,East,90,0.0,0.0,77,0.00,,,0.00,WUHU21623XXSP,2013-02-05 02:00:00,
2013-02-04 21:05:00,9.7,3.8,30.42,East,90,0.0,0.0,77,0.00,,,0.00,WUHU21623XXSP,2013-02-05 02:05:00,
2013-02-04 21:10:00,9.7,3.8,30.42,East,90,0.0,0.0,77,0.00,,,0.00,WUHU21623XXSP,2013-02-05 02:10:00,
2013-02-04 21:15:00,9.5,3.7,30.43,East,90,0.0,0.0,77,0.00,,,0.00,WUHU21623XXSP,2013-02-05 02:15:00,
2013-02-04 21:20:00,9.3,3.5,30.43,East,90,0.0,0.0,77,0.00,,,0.00,WUHU21623XXSP,2013-02-05 02:20:00,
2013-02-04 21:25:00,9.1,3.4,30.43,East,90,0.0,0.0,77,0.00,,,0.00,WUHU21623XXSP,2013-02-05 02:25:00,
2013-02-04 21:30:00,9.1,3.4,30.43,East,90,0.0,0.0,77,0.00,,,0.00,WUHU21623XXSP,2013-02-05 02:30:00,
2013-02-04 21:35:00,9.0,3.4,30.43,East,90,0.0,0.0,77,0.00,,,0.00,WUHU21623XXSP,2013-02-05 02:35:00,
2013-02-04 21:40:00,8.8,3.3,30.43,East,90,0.0,0.0,78,0.00,,,0.00,WUHU21623XXSP,2013-02-05 02:40:00,
2013-02-04 21:45:00,8.6,3.2,30.43,East,90,0.0,0.0,78,0.00,,,0.00,WUHU21623XXSP,2013-02-05 02:45:00,
2013-02-04 21:50:00,8.6,3.2,30.43,East,90,0.0,0.0,78,0.00,,,0.00,WUHU21623XXSP,2013-02-05 02:50:00,
2013-02-04 21:55:00,8.4,3.0,30.43,East,90,0.0,0.0,78,0.00,,,0.00,WUHU21623XXSP,2013-02-05 02:55:00,
2013-02-04 22:00:00,8.4,3.0,30.43,East,90,0.0,0.0,78,0.00,,,0.00,WUHU21623XXSP,2013-02-05 03:00:00,
2013-02-04 22:05:00,8.2,2.8,30.42,East,90,0.0,0.0,78,0.00,,,0.00,WUHU21623XXSP,2013-02-05 03:05:00,
2013-02-04 22:10:00,8.1,2.6,30.43,East,90,0.0,0.0,78,0.00,,,0.00,WUHU21623XXSP,2013-02-05 03:10:00,
2013-02-04 22:15:00,8.1,2.6,30.43,East,90,0.0,0.0,78,0.00,,,0.00,WUHU21623XXSP,2013-02-05 03:15:00,
2013-02-04 22:20:00,7.9,2.7,30.43,East,90,0.0,0.0,79,0.00,,,0.00,WUHU21623XXSP,2013-02-05 03:20:00,
2013-02-04 22:25:00,7.7,2.6,30.42,East,90,0.0,0.0,79,0.00,,,0.00,WUHU21623XXSP,2013-02-05 03:25:00,
2013-02-04 22:30:00,7.5,2.4,30.42,East,90,0.0,0.0,79,0.00,,,0.00,WUHU21623XXSP,2013-02-05 03:30:00,
2013-02-04 22:35:00,7.5,2.4,30.43,East,90,0.0,0.0,79,0.00,,,0.00,WUHU21623XXSP,2013-02-05 03:35:00,
2013-02-04 22:40:00,7.3,2.2,30.43,East,90,0.0,0.0,79,0.00,,,0.00,WUHU21623XXSP,2013-02-05 03:40:00,
2013-02-04 22:45:00,7.2,2.0,30.43,East,90,0.0,0.0,79,0.00,,,0.00,WUHU21623XXSP,2013-02-05 03:45:00,
2013-02-04 22:50:00,7.2,2.0,30.43,East,90,0.0,0.0,79,0.00,,,0.00,WUHU21623XXSP,2013-02-05 03:50:00,
2013-02-04 22:55:00,7.2,2.0,30.43,East,90,0.0,0.0,79,0.00,,,0.00,WUHU21623XXSP,2013-02-05 03:55:00,
2013-02-04 23:00:00,7.0,1.8,30.43,East,90,0.0,0.0,79,0.00,,,0.00,WUHU21623XXSP,2013-02-05 04:00:00,
2013-02-04 23:05:00,7.0,1.8,30.43,East,90,0.0,0.0,79,0.00,,,0.00,WUHU21623XXSP,2013-02-05 04:05:00,
2013-02-04 23:10:00,7.0,1.8,30.43,East,90,0.0,0.0,79,0.00,,,0.00,WUHU21623XXSP,2013-02-05 04:10:00,
2013-02-04 23:15:00,7.0,1.8,30.43,East,90,0.0,0.0,79,0.00,,,0.00,WUHU21623XXSP,2013-02-05 04:15:00,
2013-02-04 23:20:00,7.0,2.1,30.43,East,90,0.0,0.0,80,0.00,,,0.00,WUHU21623XXSP,2013-02-05 04:20:00,
2013-02-04 23:25:00,7.0,2.1,30.43,East,90,0.0,0.0,80,0.00,,,0.00,WUHU21623XXSP,2013-02-05 04:25:00,
2013-02-04 23:30:00,6.8,1.9,30.43,East,90,0.0,0.0,80,0.00,,,0.00,WUHU21623XXSP,2013-02-05 04:30:00,
2013-02-04 23:35:00,7.0,2.1,30.43,East,90,0.0,0.0,80,0.00,,,0.00,WUHU21623XXSP,2013-02-05 04:35:00,
2013-02-04 23:40:00,6.6,1.8,30.44,East,90,0.0,0.0,80,0.00,,,0.00,WUHU21623XXSP,2013-02-05 04:40:00,
2013-02-04 23:45:00,6.6,1.8,30.44,East,90,0.0,0.0,80,0.00,,,0.00,WUHU21623XXSP,2013-02-05 04:45:00,
2013-02-04 23:51:00,6.6,1.8,30.44,East,90,0.0,0.0,80,0.00,,,0.00,WUHU21623XXSP,2013-02-05 04:51:00,
2013-02-04 23:56:00,6.6,1.8,30.44,East,90,0.0,0.0,80,0.00,,,0.00,WUHU21623XXSP,2013-02-05 04:56:00,